Weather History for Big Bear City, CA

Change the Weather History Date:

Sunday, July 7, 2013

  Actual Average (KBUO) Record (KBUO)
Temperature  
Mean Temperature 64 °F -  
Max Temperature 80 °F 88 °F 98 °F (1996)
Min Temperature 48 °F 58 °F 53 °F (2000)
Degree Days  
Heating Degree Days 1    
Growing Degree Days 14 (Base 50)    
Moisture  
Dew Point 30 °F    
Average Humidity 28    
Maximum Humidity 54    
Minimum Humidity 15    
Precipitation  
Precipitation 0.00 in - - ()
Sea Level Pressure  
Sea Level Pressure 30.18 in    
Wind  
Wind Speed 4 mph (WSW)    
Max Wind Speed 18 mph    
Max Gust Speed 25 mph    
Visibility 10 miles    
Events      
Averages and records for this station are not official NWS values.
T = Trace of Precipitation, MM = Missing Value Source: NWS Daily Summary

Daily Weather History Graph

Daily Weather History Graph

Search for Another Location

Airport:

Trip Planner

Search our weather history database for the weather conditions in past years. The results will help you decide how hot, cold, wet, or windy it might be!

Date:

Astronomy

Jul. 07, 2013 Rise Set
Actual Time 5:42 AM PDT 8:02 PM PDT
Civil Twilight 5:13 AM PDT 8:31 PM PDT
Nautical Twilight 4:37 AM PDT 9:06 PM PDT
Astronomical Twilight 3:58 AM PDT 9:45 PM PDT
Moon 5:19 AM PDT (7/7) 7:32 PM PDT (7/7)
Length of Visible Light 15h 18m
Length of Day
14h 20m
Waning Crescent, 0% of the Moon is Illuminated
Jul 7
Waning Crescent
Jul 8
New
Jul 15
First Quarter
Jul 22
Full
Jul 29
Last Quarter

Hourly Weather History & Observations

Time (PDT) Temp. Dew Point Humidity Pressure Visibility Wind Dir Wind Speed Gust Speed Precip Events Conditions
12:15 AM 53.6 °F 21.2 °F 28% 30.17 in 10.0 mi Calm Calm - N/A   Clear
12:35 AM 53.6 °F 21.2 °F 28% 30.17 in 10.0 mi Calm Calm - N/A   Clear
12:55 AM 51.8 °F 21.2 °F 30% 30.17 in 10.0 mi Calm Calm - N/A   Clear
1:15 AM 51.8 °F 23.0 °F 33% 30.17 in 10.0 mi Calm Calm - N/A   Clear
1:35 AM 51.8 °F 21.2 °F 30% 30.16 in 10.0 mi Calm Calm - N/A   Clear
1:55 AM 51.8 °F 21.2 °F 30% 30.16 in 10.0 mi Calm Calm - N/A   Scattered Clouds
2:15 AM 51.8 °F 21.2 °F 30% 30.16 in 10.0 mi Calm Calm - N/A   Scattered Clouds
2:35 AM 51.8 °F 21.2 °F 30% 30.16 in 10.0 mi Calm Calm - N/A   Clear
2:55 AM 51.8 °F 23.0 °F 33% 30.15 in 10.0 mi Calm Calm - N/A   Clear
3:15 AM 51.8 °F 23.0 °F 33% 30.15 in 10.0 mi Calm Calm - N/A   Clear
3:35 AM 50.0 °F 23.0 °F 35% 30.15 in 10.0 mi Calm Calm - N/A   Clear
3:55 AM 50.0 °F 26.6 °F 40% 30.15 in 10.0 mi Calm Calm - N/A   Clear
4:15 AM 50.0 °F 26.6 °F 40% 30.15 in 10.0 mi Calm Calm - N/A   Clear
4:35 AM 50.0 °F 28.4 °F 43% 30.15 in 10.0 mi Calm Calm - N/A   Clear
4:55 AM 50.0 °F 30.2 °F 47% 30.15 in 10.0 mi Calm Calm - N/A   Clear
5:15 AM 50.0 °F 30.2 °F 47% 30.16 in 10.0 mi Calm Calm - N/A   Clear
5:35 AM 48.2 °F 30.2 °F 50% 30.16 in 10.0 mi Calm Calm - N/A   Clear
5:55 AM 48.2 °F 32.0 °F 54% 30.16 in 10.0 mi Calm Calm - N/A   Clear
6:15 AM 48.2 °F 32.0 °F 54% 30.16 in 10.0 mi Calm Calm - N/A   Clear
6:35 AM 50.0 °F 32.0 °F 50% 30.17 in 10.0 mi Calm Calm - N/A   Clear
6:55 AM 51.8 °F 32.0 °F 47% 30.17 in 10.0 mi Calm Calm - N/A   Clear
7:15 AM 55.4 °F 35.6 °F 47% 30.18 in 10.0 mi Calm Calm - N/A   Clear
7:35 AM 59.0 °F 37.4 °F 45% 30.18 in 10.0 mi Calm Calm - N/A   Clear
7:55 AM 62.6 °F 35.6 °F 37% 30.18 in 10.0 mi West 3.5 mph - N/A   Clear
8:15 AM 64.4 °F 33.8 °F 32% 30.19 in 10.0 mi West 4.6 mph - N/A   Clear
8:35 AM 68.0 °F 35.6 °F 30% 30.19 in 10.0 mi West 3.5 mph - N/A   Clear
8:55 AM 71.6 °F 35.6 °F 27% 30.18 in 10.0 mi West 4.6 mph - N/A   Clear
9:15 AM 75.2 °F 35.6 °F 24% 30.18 in 10.0 mi West 9.2 mph - N/A   Clear
9:35 AM 73.4 °F 35.6 °F 25% 30.18 in 10.0 mi West 8.1 mph - N/A   Clear
9:55 AM 73.4 °F 35.6 °F 25% 30.18 in 10.0 mi Calm Calm - N/A   Scattered Clouds
10:15 AM 73.4 °F 33.8 °F 23% 30.19 in 10.0 mi North 5.8 mph - N/A   Scattered Clouds
10:35 AM 77.0 °F 35.6 °F 22% 30.19 in 10.0 mi West 10.4 mph 24.2 mph N/A   Clear
10:55 AM 77.0 °F 32.0 °F 19% 30.19 in 10.0 mi SE 13.8 mph 21.9 mph N/A   Scattered Clouds
11:15 AM 77.0 °F 26.6 °F 16% 30.20 in 10.0 mi Calm Calm - N/A   Mostly Cloudy
11:35 AM 78.8 °F 35.6 °F 21% 30.20 in 10.0 mi West 16.1 mph 20.7 mph N/A   Mostly Cloudy
11:55 AM 77.0 °F 35.6 °F 22% 30.20 in 10.0 mi West 17.3 mph 23.0 mph N/A   Scattered Clouds
12:15 PM 78.8 °F 35.6 °F 21% 30.20 in 10.0 mi West 13.8 mph 19.6 mph N/A   Scattered Clouds
12:35 PM 77.0 °F 33.8 °F 21% 30.20 in 10.0 mi West 12.7 mph 18.4 mph N/A   Mostly Cloudy
12:55 PM 78.8 °F 35.6 °F 21% 30.20 in 10.0 mi West 16.1 mph 23.0 mph N/A   Mostly Cloudy
1:15 PM 78.8 °F 33.8 °F 20% 30.19 in 10.0 mi West 17.3 mph - N/A   Scattered Clouds
1:35 PM 80.6 °F 33.8 °F 18% 30.19 in 10.0 mi West 18.4 mph - N/A   Scattered Clouds
1:55 PM 80.6 °F 33.8 °F 18% 30.18 in 10.0 mi West 16.1 mph - N/A   Clear
2:15 PM 80.6 °F 33.8 °F 18% 30.18 in 10.0 mi West 18.4 mph - N/A   Clear
2:35 PM 80.6 °F 32.0 °F 17% 30.18 in 10.0 mi West 17.3 mph 23.0 mph N/A   Clear
2:55 PM 80.6 °F 33.8 °F 18% 30.18 in 10.0 mi West 15.0 mph - N/A   Clear
3:15 PM 80.6 °F 33.8 °F 18% 30.18 in 10.0 mi West 17.3 mph - N/A   Clear
3:35 PM 80.6 °F 32.0 °F 17% 30.18 in 10.0 mi West 15.0 mph 21.9 mph N/A   Clear
3:55 PM 80.6 °F 28.4 °F 15% 30.17 in 10.0 mi SW 9.2 mph 23.0 mph N/A   Clear
4:15 PM 80.6 °F 32.0 °F 17% 30.17 in 10.0 mi West 13.8 mph 25.3 mph N/A   Clear
4:35 PM 80.6 °F 28.4 °F 15% 30.17 in 10.0 mi SW 10.4 mph 18.4 mph N/A   Clear
4:55 PM 78.8 °F 30.2 °F 17% 30.17 in 10.0 mi SSW 6.9 mph 19.6 mph N/A   Clear
5:15 PM 78.8 °F 30.2 °F 17% 30.16 in 10.0 mi SSW 10.4 mph 17.3 mph N/A   Clear
5:35 PM 78.8 °F 32.0 °F 18% 30.16 in 10.0 mi SW 8.1 mph - N/A   Clear
5:55 PM 77.0 °F 32.0 °F 19% 30.16 in 10.0 mi SSW 8.1 mph - N/A   Clear
6:15 PM 77.0 °F 32.0 °F 19% 30.17 in 10.0 mi SW 8.1 mph - N/A   Clear
6:35 PM 75.2 °F 32.0 °F 21% 30.18 in 10.0 mi West 10.4 mph - N/A   Clear
6:55 PM 73.4 °F 33.8 °F 23% 30.18 in 10.0 mi WSW 10.4 mph - N/A   Clear
7:15 PM 71.6 °F 32.0 °F 23% 30.19 in 10.0 mi West 9.2 mph 16.1 mph N/A   Clear
7:35 PM 71.6 °F 32.0 °F 23% 30.19 in 10.0 mi WSW 6.9 mph - N/A   Clear
7:55 PM 69.8 °F 32.0 °F 25% 30.19 in 10.0 mi WSW 5.8 mph - N/A   Clear
8:15 PM 68.0 °F 30.2 °F 24% 30.20 in 10.0 mi WSW 5.8 mph - N/A   Clear
8:35 PM 68.0 °F 30.2 °F 24% 30.20 in 10.0 mi WSW 4.6 mph - N/A   Clear
8:55 PM 64.4 °F 32.0 °F 30% 30.21 in 10.0 mi West 4.6 mph - N/A   Clear
9:15 PM 62.6 °F 32.0 °F 32% 30.22 in 10.0 mi Calm Calm - N/A   Clear
9:35 PM 60.8 °F 32.0 °F 34% 30.23 in 10.0 mi West 5.8 mph - N/A   Clear
9:55 PM 60.8 °F 32.0 °F 34% 30.23 in 10.0 mi Calm Calm - N/A   Clear
10:15 PM 60.8 °F 26.6 °F 27% 30.24 in 10.0 mi West 3.5 mph - N/A   Clear
10:35 PM 60.8 °F 26.6 °F 27% 30.24 in 10.0 mi Calm Calm - N/A   Clear
10:55 PM 59.0 °F 26.6 °F 29% 30.24 in 10.0 mi Calm Calm - N/A   Clear
11:15 PM 55.4 °F 26.6 °F 33% 30.25 in 10.0 mi Calm Calm - N/A   Clear
11:35 PM 55.4 °F 26.6 °F 33% 30.24 in 10.0 mi Calm Calm - N/A   Clear
11:55 PM 55.4 °F 26.6 °F 33% 30.25 in 10.0 mi Calm Calm - N/A   Clear